Regional Weather Roundup
Issued by NWS Newport/Morehead, NC

Current Version | Previous Version | Graphics & Text | Print | Product List | Glossary On
Versions: 1 2 3 4 5 6 7 8 9 10 11 12 13 14 15 16 17 18 19 20 21 22 23 24 25 26 27 28 29 30 31 32 33 34 35 36 37 38 39 40 41 42 43 44 45 46 47 48 49 50
000 ASUS42 KMHX 180013 RWRMHX WEATHER ROUNDUP FOR EASTERN NORTH CAROLINA NATIONAL WEATHER SERVICE NEWPORT/MOREHEAD CITY NC 700 PM EST SUN DEC 17 2017 NOTE: "FAIR" INDICATES FEW OR NO CLOUDS BELOW 12,000 FEET WITH NO SIGNIFICANT WEATHER AND/OR OBSTRUCTIONS TO VISIBILITY NCZ015>017-031-032-045>047-102-103-180100- NORTH COAST CITY SKY/WX TMP DP RH WIND PRES REMARKS EDENTON CLOUDY 47 40 77 CALM 30.24S ELIZABETH CITY CLOUDY 46 41 82 CALM 30.23R KITTY HAWK CLOUDY 47 34 59 CALM 30.22R MANTEO CLOUDY 46 38 75 CALM 30.24R $$ NCZ045>047-081-094-103-104-180100- CENTRAL COAST CITY SKY/WX TMP DP RH WIND PRES REMARKS FRISCO CLOUDY 48 41 76 CALM 30.23R $$ NCZ095-097-098-100-101-180100- SOUTHERN COAST CITY SKY/WX TMP DP RH WIND PRES REMARKS BEAUFORT CLOUDY 49 44 83 CALM 30.22S CEDAR ISLAND NOT AVBL JACKSONVILLE CLOUDY 50 44 80 CALM 30.22R PINEY ISLAND N/A N/A N/A N/A CALM 30.23R WILMINGTON MOCLDY 54 46 74 S5 30.21F $$ NCZ011>013-027>030-043-044-078>080-089-090>093-098-180100- COASTAL PLAIN CITY SKY/WX TMP DP RH WIND PRES REMARKS AHOSKIE LGT RAIN 42 38 85 CALM 30.24R CLINTON CLOUDY 52 39 62 CALM 30.21S ELIZABETHTOWN NOT AVBL GOLDSBORO CLOUDY 50 37 60 CALM 30.20R GREENVILLE CLOUDY 48 36 61 CALM 30.23S HAVELOCK CLOUDY 50 43 77 CALM 30.23R KENANSVILLE CLOUDY 50 39 66 CALM 30.21S KINSTON CLOUDY 50 41 71 CALM 30.22S NEW BERN CLOUDY 49 41 74 CALM 30.23S RICHLANDS LGT RAIN 52 43 71 CALM 30.22F ROCKY MOUNT CLOUDY 46 40 79 CALM 30.23R WASHINGTON CLOUDY 48 39 71 CALM 30.24R WHITEVILLE CLOUDY 55 41 60 CALM 30.21R $$ AMZ130-135-150-152-154-156-158-170-250-252-270-ANZ085-086-088-633-658-670-180100- MARINE OBSERVATIONS STATION/POSITION TIME TEMP WIND PRES WAVE SWELL AIR SEA DIR/SP/G HT/PER HT/PER (UTC) (F) (DEG/KT/KT) (MB) (FT/S) (FT/S) CHESAPEAKE LIGHT NOT AVBL 64 E VA BEACH 2350 54 59 230/ 12/ 16 1023.9 2/ 3 DUCK 2342 52 200/ 3/ 5 1023.1 2 E DUCK 0000 54 N/A 1/10 OREGON INLET 2342 45 180/ 5/ 6 1023.6 13E OREGON INLT 2348 59 N/A 1/10 2/10 HATTERAS CG 2342 53 10/ 2/ 3 1023.1 DIAMOND BUOY 0000 60 72 310/ 6/ 10 1023.6 CAPE LOOKOUT 0000 CALM / 1 1023.6 BEAUFORT LAB 2342 50 130/ 2/ 2 1023.3 30 SE NEW RVR IN 2308 58 64 210/ 2/ 4 1023.2 30 SE NEW RVR IN 0000 64 N/A 1/11 27 SE WRIGHTSVLE 2308 57 61 250/ 2/ 2 1023.3 5 SE WRIGHTSVLE 2308 55 57 200/ 6/ 6 1023.0 225 S CAPE HAT 2350 67 74 200/ 6/ 8 1025.0 2/10 2/10 41 SE CHARLESTON 0000 64 73 CALM / 2 1022.9 $$

USA.gov is the U.S. government's official web portal to all federal, state and local government web resources and services.